| time (UTC) | temp F | wind direction | speed MPH | gust MPH | rain 1hr in | rain 24hr in | rain mn in | humidity % | barometer mb |
| 20260508003910 | 49 | 38 | 0.0 | 0.0 | 0.00 | 0.00 | 0.00 | 94 | 1010.3 |
| 20260508003409 | 49 | 38 | 0.0 | 0.0 | 0.00 | 0.00 | 0.00 | 94 | 1010.4 |
| 20260508002910 | 49 | 38 | 0.0 | 0.0 | 0.00 | 0.00 | 0.00 | 93 | 1010.4 |
| 20260508002410 | 49 | 38 | 0.0 | 0.0 | 0.00 | 0.00 | 0.00 | 93 | 1010.5 |
| 20260508001410 | 49 | 38 | 0.0 | 0.0 | 0.00 | 0.00 | 0.00 | 93 | 1010.5 |
| 20260508000910 | 49 | 38 | 0.0 | 0.0 | 0.00 | 0.00 | 0.00 | 93 | 1010.6 |
| 20260508000409 | 49 | 38 | 0.0 | 1.0 | 0.00 | 0.00 | 0.00 | 94 | 1010.6 |
| 20260507235911 | 49 | 38 | 0.0 | 1.0 | 0.00 | 0.00 | 0.00 | 94 | 1010.6 |
| 20260507235409 | 49 | 38 | 0.0 | 2.0 | 0.00 | 0.00 | 0.00 | 93 | 1010.6 |
| 20260507234910 | 50 | 38 | 2.0 | 3.0 | 0.00 | 0.00 | 0.00 | 93 | 1010.7 |
| 20260507234409 | 50 | 38 | 1.0 | 5.0 | 0.00 | 0.00 | 0.00 | 93 | 1010.8 |
| 20260507233909 | 50 | 37 | 1.0 | 5.0 | 0.00 | 0.00 | 0.00 | 92 | 1010.8 |
| 20260507233409 | 50 | 284 | 0.0 | 2.0 | 0.00 | 0.00 | 0.00 | 92 | 1010.9 |
| 20260507232910 | 50 | 284 | 1.0 | 2.0 | 0.00 | 0.00 | 0.00 | 92 | 1010.8 |
| 20260507232409 | 50 | 284 | 1.0 | 2.0 | 0.00 | 0.00 | 0.00 | 92 | 1010.9 |
| 20260507231909 | 50 | 284 | 0.0 | 2.0 | 0.00 | 0.00 | 0.00 | 92 | 1010.9 |
| 20260507231409 | 50 | 284 | 1.0 | 2.0 | 0.00 | 0.00 | 0.00 | 92 | 1010.9 |
| 20260507230909 | 50 | 284 | 1.0 | 2.0 | 0.00 | 0.00 | 0.00 | 92 | 1010.9 |
| 20260507230410 | 50 | 284 | 1.0 | 3.0 | 0.00 | 0.00 | 0.00 | 92 | 1010.9 |
| 20260507225910 | 50 | 284 | 2.0 | 5.0 | 0.00 | 0.00 | 0.00 | 92 | 1011.0 |
| 20260507225409 | 51 | 284 | 0.0 | 3.0 | 0.00 | 0.00 | 0.00 | 92 | 1010.9 |
| 20260507224909 | 51 | 283 | 0.0 | 1.0 | 0.00 | 0.00 | 0.00 | 92 | 1011.0 |
| 20260507224410 | 51 | 283 | 0.0 | 0.0 | 0.00 | 0.00 | 0.00 | 92 | 1011.1 |
| 20260507223910 | 51 | 283 | 0.0 | 0.0 | 0.00 | 0.00 | 0.00 | 92 | 1011.2 |
| 20260507223409 | 51 | 283 | 0.0 | 0.0 | 0.00 | 0.00 | 0.00 | 91 | 1011.2 |
| 20260507222911 | 51 | 283 | 0.0 | 0.0 | 0.00 | 0.00 | 0.00 | 91 | 1011.3 |
| 20260507222409 | 51 | 283 | 0.0 | 0.0 | 0.00 | 0.00 | 0.00 | 91 | 1011.3 |
| 20260507221909 | 51 | 283 | 0.0 | 0.0 | 0.00 | 0.00 | 0.00 | 91 | 1011.3 |
| 20260507221409 | 52 | 283 | 0.0 | 0.0 | 0.00 | 0.00 | 0.00 | 91 | 1011.4 |
| 20260507220909 | 52 | 283 | 0.0 | 2.0 | 0.00 | 0.00 | 0.00 | 91 | 1011.4 |
| 20260507220409 | 52 | 283 | 1.0 | 3.0 | 0.00 | 0.00 | 0.00 | 91 | 1011.4 |
| 20260507215910 | 52 | 283 | 2.0 | 3.0 | 0.00 | 0.00 | 0.00 | 91 | 1011.5 |
| 20260507215409 | 52 | 283 | 2.0 | 5.0 | 0.00 | 0.00 | 0.00 | 90 | 1011.5 |
| 20260507213909 | 52 | 284 | 3.0 | 7.0 | 0.00 | 0.00 | 0.00 | 89 | 1011.5 |
| 20260507213409 | 52 | 239 | 0.0 | 2.0 | 0.00 | 0.00 | 0.00 | 89 | 1011.5 |
| 20260507212410 | 53 | 239 | 0.0 | 0.0 | 0.00 | 0.00 | 0.00 | 88 | 1011.6 |
| 20260507211909 | 53 | 239 | 0.0 | 3.0 | 0.00 | 0.00 | 0.00 | 87 | 1011.6 |
| 20260507211410 | 53 | 239 | 5.0 | 7.0 | 0.00 | 0.00 | 0.00 | 87 | 1011.5 |
| 20260507210909 | 53 | 239 | 5.0 | 8.0 | 0.00 | 0.00 | 0.00 | 87 | 1011.4 |
| 20260507210409 | 53 | 238 | 5.0 | 8.0 | 0.00 | 0.00 | 0.00 | 86 | 1011.4 |
| 20260507205910 | 53 | 246 | 6.0 | 9.0 | 0.00 | 0.00 | 0.00 | 86 | 1011.3 |
| 20260507204909 | 54 | 240 | 3.0 | 7.0 | 0.00 | 0.00 | 0.00 | 85 | 1011.3 |
| 20260507204409 | 54 | 242 | 6.0 | 9.0 | 0.00 | 0.00 | 0.00 | 85 | 1011.1 |
| 20260507203910 | 54 | 242 | 6.0 | 9.0 | 0.00 | 0.00 | 0.00 | 84 | 1011.1 |
| 20260507203409 | 54 | 235 | 5.0 | 8.0 | 0.00 | 0.00 | 0.00 | 83 | 1011.0 |
| 20260507202910 | 55 | 254 | 5.0 | 7.0 | 0.00 | 0.00 | 0.00 | 83 | 1011.0 |
| 20260507201910 | 55 | 256 | 3.0 | 7.0 | 0.00 | 0.00 | 0.00 | 81 | 1010.8 |
| 20260507201410 | 55 | 237 | 7.0 | 9.0 | 0.00 | 0.00 | 0.00 | 81 | 1010.7 |
| 20260507200910 | 55 | 238 | 7.0 | 10.0 | 0.00 | 0.00 | 0.00 | 79 | 1010.6 |
| 20260507200409 | 56 | 201 | 6.0 | 9.0 | 0.00 | 0.00 | 0.00 | 79 | 1010.5 |
| 20260507195910 | 56 | 219 | 5.0 | 7.0 | 0.00 | 0.00 | 0.00 | 78 | 1010.5 |
| 20260507195409 | 56 | 236 | 4.0 | 6.0 | 0.00 | 0.00 | 0.00 | 78 | 1010.4 |
| 20260507193909 | 57 | 248 | 5.0 | 8.0 | 0.00 | 0.00 | 0.00 | 76 | 1010.2 |
| 20260507193409 | 57 | 237 | 5.0 | 9.0 | 0.00 | 0.00 | 0.00 | 75 | 1010.1 |
| 20260507192910 | 58 | 230 | 6.0 | 10.0 | 0.00 | 0.00 | 0.00 | 74 | 1010.0 |
| 20260507192410 | 58 | 223 | 5.0 | 6.0 | 0.00 | 0.00 | 0.00 | 74 | 1009.9 |
| 20260507191910 | 58 | 223 | 6.0 | 9.0 | 0.00 | 0.00 | 0.00 | 74 | 1009.9 |
| 20260507191409 | 59 | 243 | 6.0 | 9.0 | 0.00 | 0.00 | 0.00 | 74 | 1009.9 |
| 20260507190909 | 59 | 245 | 6.0 | 9.0 | 0.00 | 0.00 | 0.00 | 73 | 1009.8 |
| 20260507190410 | 59 | 237 | 7.0 | 10.0 | 0.00 | 0.00 | 0.00 | 73 | 1009.8 |
| 20260507185410 | 59 | 245 | 6.0 | 10.0 | 0.00 | 0.00 | 0.00 | 72 | 1009.8 |
| 20260507184909 | 60 | 248 | 7.0 | 12.0 | 0.00 | 0.00 | 0.00 | 72 | 1009.8 |
| 20260507184410 | 60 | 231 | 9.0 | 13.0 | 0.00 | 0.00 | 0.00 | 73 | 1009.8 |
| 20260507183910 | 60 | 238 | 6.0 | 10.0 | 0.00 | 0.00 | 0.00 | 73 | 1009.6 |
| 20260507183409 | 60 | 244 | 7.0 | 13.0 | 0.00 | 0.00 | 0.00 | 73 | 1009.6 |
| 20260507182910 | 60 | 238 | 7.0 | 14.0 | 0.00 | 0.00 | 0.00 | 73 | 1009.6 |
| 20260507182410 | 60 | 240 | 7.0 | 14.0 | 0.00 | 0.00 | 0.00 | 72 | 1009.6 |
| 20260507181909 | 60 | 245 | 9.0 | 13.0 | 0.00 | 0.00 | 0.00 | 72 | 1009.5 |
| 20260507181409 | 60 | 256 | 7.0 | 12.0 | 0.00 | 0.00 | 0.00 | 72 | 1009.6 |
| 20260507180909 | 60 | 230 | 7.0 | 10.0 | 0.00 | 0.00 | 0.00 | 73 | 1009.5 |
| 20260507180410 | 61 | 240 | 9.0 | 12.0 | 0.00 | 0.00 | 0.00 | 72 | 1009.4 |
| 20260507175910 | 61 | 241 | 8.0 | 13.0 | 0.00 | 0.00 | 0.00 | 72 | 1009.4 |
| 20260507175410 | 61 | 241 | 9.0 | 14.0 | 0.00 | 0.00 | 0.00 | 71 | 1009.3 |
| 20260507174910 | 61 | 250 | 10.0 | 20.0 | 0.00 | 0.00 | 0.00 | 71 | 1009.3 |
| 20260507174410 | 61 | 247 | 9.0 | 18.0 | 0.00 | 0.00 | 0.00 | 71 | 1009.3 |
| 20260507173909 | 62 | 238 | 8.0 | 15.0 | 0.00 | 0.00 | 0.00 | 71 | 1009.2 |
| 20260507173410 | 62 | 249 | 9.0 | 20.0 | 0.00 | 0.00 | 0.00 | 71 | 1009.3 |
| 20260507172910 | 62 | 248 | 13.0 | 21.0 | 0.00 | 0.00 | 0.00 | 71 | 1009.3 |
| 20260507172410 | 62 | 246 | 11.0 | 18.0 | 0.00 | 0.00 | 0.00 | 71 | 1009.3 |
| 20260507171910 | 63 | 239 | 12.0 | 20.0 | 0.00 | 0.00 | 0.00 | 70 | 1009.3 |
| 20260507171409 | 63 | 238 | 10.0 | 22.0 | 0.00 | 0.00 | 0.00 | 70 | 1009.3 |
| 20260507170409 | 63 | 248 | 12.0 | 18.0 | 0.00 | 0.00 | 0.00 | 71 | 1009.2 |
| 20260507165910 | 63 | 240 | 10.0 | 21.0 | 0.00 | 0.00 | 0.00 | 69 | 1009.2 |
| 20260507165409 | 64 | 248 | 10.0 | 22.0 | 0.00 | 0.00 | 0.00 | 69 | 1009.2 |
| 20260507163910 | 64 | 253 | 9.0 | 16.0 | 0.00 | 0.00 | 0.00 | 70 | 1009.0 |
| 20260507163409 | 65 | 242 | 9.0 | 15.0 | 0.00 | 0.00 | 0.00 | 69 | 1009.1 |
| 20260507162911 | 65 | 241 | 10.0 | 15.0 | 0.00 | 0.00 | 0.00 | 68 | 1009.0 |
| 20260507162409 | 66 | 242 | 8.0 | 16.0 | 0.00 | 0.00 | 0.00 | 67 | 1009.0 |
| 20260507161409 | 65 | 229 | 9.0 | 15.0 | 0.00 | 0.00 | 0.00 | 67 | 1009.0 |
| 20260507160910 | 65 | 222 | 9.0 | 16.0 | 0.00 | 0.00 | 0.00 | 69 | 1009.0 |
| 20260507160409 | 64 | 241 | 8.0 | 15.0 | 0.00 | 0.00 | 0.00 | 73 | 1008.9 |
| 20260507155911 | 63 | 233 | 8.0 | 13.0 | 0.00 | 0.00 | 0.00 | 69 | 1009.0 |
| 20260507155410 | 63 | 229 | 8.0 | 13.0 | 0.00 | 0.00 | 0.00 | 70 | 1009.0 |
| 20260507154910 | 64 | 240 | 9.0 | 13.0 | 0.00 | 0.00 | 0.00 | 67 | 1009.0 |
| 20260507154409 | 65 | 226 | 7.0 | 15.0 | 0.00 | 0.00 | 0.00 | 69 | 1009.0 |
| 20260507153910 | 64 | 249 | 8.0 | 13.0 | 0.00 | 0.00 | 0.00 | 69 | 1009.0 |
| 20260507152910 | 65 | 228 | 10.0 | 14.0 | 0.00 | 0.00 | 0.00 | 70 | 1009.0 |
| 20260507152410 | 65 | 239 | 10.0 | 14.0 | 0.00 | 0.00 | 0.00 | 69 | 1009.1 |
| 20260507150410 | 64 | 238 | 9.0 | 14.0 | 0.00 | 0.00 | 0.00 | 73 | 1009.2 |
| 20260507145410 | 63 | 246 | 8.0 | 15.0 | 0.00 | 0.00 | 0.00 | 75 | 1009.3 |
| 20260507144410 | 64 | 226 | 9.0 | 18.0 | 0.00 | 0.00 | 0.00 | 74 | 1009.3 |
| 20260507143410 | 65 | 236 | 10.0 | 15.0 | 0.00 | 0.00 | 0.00 | 74 | 1009.4 |
| 20260507142911 | 64 | 238 | 11.0 | 22.0 | 0.00 | 0.00 | 0.00 | 75 | 1009.4 |
| 20260507141909 | 64 | 233 | 12.0 | 18.0 | 0.00 | 0.00 | 0.00 | 76 | 1009.4 |
| 20260507141409 | 63 | 234 | 9.0 | 14.0 | 0.00 | 0.00 | 0.00 | 76 | 1009.3 |
| 20260507140909 | 63 | 239 | 10.0 | 21.0 | 0.00 | 0.00 | 0.00 | 76 | 1009.4 |
| 20260507140410 | 63 | 236 | 10.0 | 15.0 | 0.00 | 0.00 | 0.00 | 76 | 1009.5 |
| 20260507135911 | 64 | 239 | 9.0 | 18.0 | 0.00 | 0.00 | 0.00 | 75 | 1009.3 |
| 20260507134909 | 64 | 247 | 10.0 | 22.0 | 0.00 | 0.00 | 0.00 | 74 | 1009.3 |
| 20260507134409 | 65 | 265 | 9.0 | 16.0 | 0.00 | 0.00 | 0.00 | 74 | 1009.3 |
| 20260507133910 | 64 | 238 | 9.0 | 14.0 | 0.00 | 0.00 | 0.00 | 78 | 1009.3 |
| 20260507133410 | 63 | 244 | 7.0 | 12.0 | 0.00 | 0.00 | 0.00 | 76 | 1009.3 |
| 20260507132911 | 63 | 239 | 9.0 | 15.0 | 0.00 | 0.00 | 0.00 | 75 | 1009.4 |
| 20260507132410 | 63 | 239 | 9.0 | 20.0 | 0.00 | 0.00 | 0.00 | 75 | 1009.4 |
| 20260507131909 | 63 | 238 | 10.0 | 20.0 | 0.00 | 0.00 | 0.00 | 76 | 1009.3 |
| 20260507130910 | 63 | 256 | 8.0 | 13.0 | 0.00 | 0.00 | 0.00 | 74 | 1009.4 |
| 20260507130409 | 63 | 247 | 8.0 | 15.0 | 0.00 | 0.00 | 0.00 | 73 | 1009.4 |
| 20260507124910 | 64 | 241 | 9.0 | 20.0 | 0.00 | 0.00 | 0.00 | 73 | 1009.5 |
| 20260507124409 | 65 | 236 | 9.0 | 20.0 | 0.00 | 0.00 | 0.00 | 72 | 1009.4 |
| 20260507123910 | 66 | 237 | 10.0 | 18.0 | 0.00 | 0.00 | 0.00 | 70 | 1009.4 |
| 20260507123410 | 66 | 233 | 12.0 | 20.0 | 0.00 | 0.00 | 0.00 | 70 | 1009.5 |
| 20260507122911 | 65 | 243 | 10.0 | 20.0 | 0.00 | 0.00 | 0.00 | 72 | 1009.6 |
| 20260507122410 | 66 | 240 | 12.0 | 21.0 | 0.00 | 0.00 | 0.00 | 71 | 1009.6 |
| 20260507121910 | 67 | 235 | 9.0 | 16.0 | 0.00 | 0.00 | 0.00 | 70 | 1009.7 |
| 20260507121410 | 65 | 225 | 9.0 | 15.0 | 0.00 | 0.00 | 0.00 | 76 | 1009.7 |
| 20260507120909 | 64 | 237 | 9.0 | 15.0 | 0.00 | 0.00 | 0.00 | 74 | 1009.8 |
| 20260507120409 | 64 | 247 | 9.0 | 16.0 | 0.00 | 0.00 | 0.00 | 73 | 1009.7 |
| 20260507115910 | 65 | 248 | 8.0 | 15.0 | 0.00 | 0.00 | 0.00 | 71 | 1009.8 |
| 20260507114909 | 65 | 250 | 8.0 | 12.0 | 0.00 | 0.00 | 0.00 | 74 | 1009.8 |
| 20260507114409 | 63 | 246 | 9.0 | 16.0 | 0.00 | 0.00 | 0.00 | 72 | 1009.8 |
| 20260507113910 | 64 | 235 | 6.0 | 14.0 | 0.00 | 0.00 | 0.00 | 73 | 1009.9 |
| 20260507113409 | 65 | 252 | 9.0 | 15.0 | 0.00 | 0.00 | 0.00 | 70 | 1009.9 |
| 20260507112911 | 66 | 241 | 10.0 | 16.0 | 0.00 | 0.00 | 0.00 | 68 | 1009.8 |
| 20260507111910 | 63 | 246 | 7.0 | 12.0 | 0.00 | 0.00 | 0.00 | 70 | 1009.8 |
| 20260507111410 | 63 | 235 | 8.0 | 13.0 | 0.00 | 0.00 | 0.00 | 67 | 1009.9 |
| 20260507110910 | 64 | 235 | 10.0 | 18.0 | 0.00 | 0.00 | 0.00 | 64 | 1009.8 |
| 20260507105911 | 64 | 235 | 7.0 | 10.0 | 0.00 | 0.00 | 0.00 | 65 | 1009.9 |
| 20260507104410 | 65 | 224 | 7.0 | 12.0 | 0.00 | 0.00 | 0.00 | 67 | 1009.9 |
| 20260507103909 | 64 | 256 | 6.0 | 9.0 | 0.00 | 0.00 | 0.00 | 67 | 1009.9 |
| 20260507103410 | 64 | 69 | 1.0 | 3.0 | 0.00 | 0.00 | 0.00 | 68 | 1009.9 |
| 20260507102910 | 63 | 69 | 0.0 | 2.0 | 0.00 | 0.00 | 0.00 | 68 | 1009.9 |
| 20260507102409 | 63 | 69 | 0.0 | 1.0 | 0.00 | 0.00 | 0.00 | 69 | 1010.0 |
| 20260507101910 | 63 | 69 | 0.0 | 2.0 | 0.00 | 0.00 | 0.00 | 67 | 1010.0 |
| 20260507101410 | 62 | 69 | 0.0 | 0.0 | 0.00 | 0.00 | 0.00 | 70 | 1010.0 |
| 20260507100909 | 61 | 69 | 0.0 | 0.0 | 0.00 | 0.00 | 0.00 | 67 | 1010.0 |
| 20260507100410 | 62 | 69 | 0.0 | 2.0 | 0.00 | 0.00 | 0.00 | 66 | 1010.0 |
| 20260507095910 | 61 | 69 | 0.0 | 3.0 | 0.00 | 0.00 | 0.00 | 67 | 1010.0 |
| 20260507095410 | 61 | 69 | 1.0 | 3.0 | 0.00 | 0.00 | 0.00 | 67 | 1010.1 |
| 20260507094910 | 61 | 69 | 1.0 | 3.0 | 0.00 | 0.00 | 0.00 | 67 | 1010.1 |
| 20260507094409 | 62 | 69 | 1.0 | 5.0 | 0.00 | 0.00 | 0.00 | 66 | 1010.1 |
| 20260507093909 | 62 | 69 | 0.0 | 5.0 | 0.00 | 0.00 | 0.00 | 67 | 1010.1 |
| 20260507093410 | 62 | 69 | 0.0 | 5.0 | 0.00 | 0.00 | 0.00 | 68 | 1010.1 |
| 20260507092910 | 62 | 69 | 1.0 | 5.0 | 0.00 | 0.00 | 0.00 | 68 | 1010.1 |
| 20260507092410 | 61 | 69 | 3.0 | 6.0 | 0.00 | 0.00 | 0.00 | 70 | 1010.2 |
| 20260507091910 | 60 | 69 | 1.0 | 3.0 | 0.00 | 0.00 | 0.00 | 74 | 1010.3 |
| 20260507091409 | 60 | 69 | 1.0 | 3.0 | 0.00 | 0.00 | 0.00 | 72 | 1010.3 |
| 20260507090909 | 60 | 69 | 2.0 | 3.0 | 0.00 | 0.00 | 0.00 | 74 | 1010.3 |
| 20260507090410 | 59 | 69 | 2.0 | 5.0 | 0.00 | 0.00 | 0.00 | 75 | 1010.3 |
| 20260507085911 | 58 | 69 | 1.0 | 5.0 | 0.00 | 0.00 | 0.00 | 74 | 1010.3 |
| 20260507085410 | 57 | 69 | 3.0 | 5.0 | 0.00 | 0.00 | 0.00 | 76 | 1010.4 |
| 20260507084910 | 57 | 69 | 1.0 | 2.0 | 0.00 | 0.00 | 0.00 | 79 | 1010.4 |
| 20260507084409 | 57 | 69 | 1.0 | 5.0 | 0.00 | 0.00 | 0.00 | 78 | 1010.5 |
| 20260507083910 | 56 | 69 | 0.0 | 2.0 | 0.00 | 0.00 | 0.00 | 81 | 1010.5 |
| 20260507083410 | 56 | 69 | 0.0 | 0.0 | 0.00 | 0.00 | 0.00 | 83 | 1010.4 |
| 20260507082910 | 55 | 69 | 0.0 | 0.0 | 0.00 | 0.00 | 0.00 | 83 | 1010.4 |
| 20260507082409 | 55 | 69 | 0.0 | 2.0 | 0.00 | 0.00 | 0.00 | 84 | 1010.4 |
| 20260507081410 | 53 | 69 | 1.0 | 2.0 | 0.00 | 0.00 | 0.00 | 86 | 1010.4 |
| 20260507080910 | 53 | 69 | 0.0 | 2.0 | 0.00 | 0.00 | 0.00 | 87 | 1010.5 |
| 20260507075910 | 53 | 69 | 2.0 | 3.0 | 0.00 | 0.00 | 0.00 | 88 | 1010.6 |
| 20260507074910 | 52 | 69 | 1.0 | 3.0 | 0.00 | 0.00 | 0.00 | 88 | 1010.6 |
| 20260507074410 | 52 | 69 | 1.0 | 3.0 | 0.00 | 0.00 | 0.00 | 89 | 1010.7 |
| 20260507073909 | 51 | 69 | 3.0 | 5.0 | 0.00 | 0.00 | 0.00 | 89 | 1010.7 |
| 20260507073409 | 51 | 69 | 1.0 | 5.0 | 0.00 | 0.00 | 0.00 | 89 | 1010.7 |
| 20260507072410 | 50 | 69 | 1.0 | 3.0 | 0.00 | 0.00 | 0.00 | 92 | 1010.9 |
| 20260507071910 | 50 | 69 | 0.0 | 3.0 | 0.00 | 0.00 | 0.00 | 93 | 1010.9 |
| 20260507071409 | 49 | 69 | 1.0 | 3.0 | 0.00 | 0.00 | 0.00 | 93 | 1011.0 |
| 20260507070410 | 49 | 69 | 0.0 | 2.0 | 0.00 | 0.00 | 0.00 | 95 | 1011.0 |
| 20260507065910 | 49 | 69 | 0.0 | 1.0 | 0.00 | 0.00 | 0.00 | 97 | 1011.0 |
| 20260507065409 | 48 | 69 | 0.0 | 0.0 | 0.00 | 0.00 | 0.00 | 97 | 1011.0 |
| 20260507064909 | 48 | 69 | 1.0 | 2.0 | 0.00 | 0.00 | 0.00 | 97 | 1011.1 |
| 20260507064409 | 48 | 69 | 0.0 | 1.0 | 0.00 | 0.00 | 0.00 | 98 | 1011.2 |
| 20260507063910 | 48 | 69 | 0.0 | 0.0 | 0.00 | 0.00 | 0.00 | 98 | 1011.1 |
| 20260507063410 | 47 | 69 | 0.0 | 0.0 | 0.00 | 0.00 | 0.00 | 98 | 1011.1 |
| 20260507062409 | 47 | 69 | 0.0 | 1.0 | 0.00 | 0.00 | 0.00 | 98 | 1011.1 |
| 20260507061910 | 47 | 69 | 1.0 | 2.0 | 0.00 | 0.00 | 0.00 | 98 | 1010.9 |
| 20260507061409 | 46 | 69 | 1.0 | 2.0 | 0.00 | 0.00 | 0.00 | 99 | 1011.0 |
| 20260507060909 | 45 | 69 | 0.0 | 1.0 | 0.00 | 0.00 | 0.00 | 98 | 1011.0 |
| 20260507060409 | 45 | 69 | 0.0 | 0.0 | 0.00 | 0.00 | 0.00 | 98 | 1011.0 |
| 20260507055410 | 44 | 69 | 1.0 | 2.0 | 0.00 | 0.00 | 0.00 | 97 | 1011.0 |
| 20260507054910 | 44 | 69 | 0.0 | 2.0 | 0.00 | 0.01 | 0.00 | 97 | 1011.0 |
| 20260507053910 | 53 | 67 | 0.0 | 0.0 | 0.00 | 0.01 | 0.00 | 84 | 1012.9 |
| 20260507053410 | 53 | 67 | 0.0 | 0.0 | 0.00 | 0.01 | 0.00 | 84 | 1012.9 |
| 20260507052911 | 53 | 67 | 0.0 | 0.0 | 0.00 | 0.01 | 0.00 | 84 | 1012.9 |
| 20260507052410 | 53 | 67 | 0.0 | 0.0 | 0.00 | 0.01 | 0.00 | 84 | 1012.9 |
| 20260507051910 | 53 | 67 | 0.0 | 0.0 | 0.00 | 0.01 | 0.00 | 84 | 1012.9 |
| 20260507051409 | 53 | 67 | 0.0 | 0.0 | 0.00 | 0.01 | 0.00 | 84 | 1012.9 |
| 20260507050409 | 53 | 67 | 0.0 | 0.0 | 0.00 | 0.01 | 0.00 | 84 | 1012.9 |
| 20260507045911 | 53 | 67 | 0.0 | 0.0 | 0.00 | 0.01 | 0.00 | 84 | 1012.9 |
| 20260507045410 | 53 | 67 | 0.0 | 0.0 | 0.00 | 0.01 | 0.00 | 84 | 1012.9 |
| 20260507044410 | 53 | 67 | 0.0 | 0.0 | 0.00 | 0.01 | 0.00 | 84 | 1012.9 |
| 20260507043910 | 53 | 67 | 0.0 | 0.0 | 0.00 | 0.01 | 0.00 | 84 | 1012.9 |
| 20260507043410 | 53 | 67 | 0.0 | 0.0 | 0.00 | 0.01 | 0.00 | 84 | 1012.9 |
| 20260507042912 | 53 | 67 | 0.0 | 0.0 | 0.00 | 0.01 | 0.00 | 84 | 1012.9 |
| 20260507042410 | 53 | 67 | 0.0 | 0.0 | 0.00 | 0.01 | 0.00 | 84 | 1012.9 |
| 20260507041910 | 53 | 67 | 0.0 | 0.0 | 0.00 | 0.01 | 0.00 | 84 | 1012.9 |
| 20260507041410 | 53 | 67 | 0.0 | 0.0 | 0.00 | 0.01 | 0.00 | 84 | 1012.9 |
| 20260507040911 | 53 | 67 | 0.0 | 0.0 | 0.00 | 0.01 | 0.00 | 84 | 1012.9 |
| 20260507040410 | 53 | 67 | 0.0 | 0.0 | 0.00 | 0.01 | 0.00 | 84 | 1012.9 |
| 20260507035911 | 53 | 67 | 0.0 | 0.0 | 0.00 | 0.01 | 0.00 | 84 | 1012.9 |
| 20260507034410 | 53 | 67 | 0.0 | 0.0 | 0.00 | 0.01 | 0.00 | 84 | 1012.9 |
| 20260507033910 | 53 | 67 | 0.0 | 0.0 | 0.00 | 0.01 | 0.00 | 84 | 1012.9 |
| 20260507033410 | 53 | 67 | 0.0 | 0.0 | 0.00 | 0.01 | 0.00 | 84 | 1012.9 |
| 20260507032911 | 53 | 67 | 0.0 | 0.0 | 0.00 | 0.01 | 0.00 | 84 | 1012.9 |
| 20260507032410 | 53 | 67 | 0.0 | 0.0 | 0.00 | 0.01 | 0.00 | 84 | 1012.9 |
| 20260507031910 | 53 | 67 | 0.0 | 0.0 | 0.00 | 0.01 | 0.00 | 84 | 1012.9 |
| 20260507030910 | 53 | 67 | 0.0 | 0.0 | 0.00 | 0.01 | 0.00 | 84 | 1012.9 |
| 20260507025410 | 53 | 67 | 0.0 | 0.0 | 0.00 | 0.01 | 0.00 | 84 | 1012.9 |
| 20260507024910 | 53 | 67 | 0.0 | 0.0 | 0.00 | 0.01 | 0.00 | 84 | 1012.9 |
| 20260507024409 | 53 | 67 | 0.0 | 0.0 | 0.00 | 0.01 | 0.00 | 84 | 1012.9 |
| 20260507023909 | 53 | 67 | 0.0 | 0.0 | 0.00 | 0.01 | 0.00 | 84 | 1012.9 |
| 20260507023410 | 53 | 67 | 0.0 | 0.0 | 0.00 | 0.01 | 0.00 | 84 | 1012.9 |
| 20260507022911 | 53 | 67 | 0.0 | 0.0 | 0.00 | 0.01 | 0.00 | 84 | 1012.9 |
| 20260507021910 | 53 | 67 | 0.0 | 0.0 | 0.00 | 0.01 | 0.00 | 84 | 1012.9 |
| 20260507021410 | 53 | 67 | 0.0 | 0.0 | 0.00 | 0.01 | 0.00 | 84 | 1012.9 |
| 20260507020910 | 53 | 67 | 0.0 | 0.0 | 0.00 | 0.01 | 0.00 | 84 | 1012.9 |
| 20260507015409 | 53 | 67 | 0.0 | 0.0 | 0.00 | 0.01 | 0.00 | 84 | 1012.9 |
| 20260507014910 | 53 | 67 | 0.0 | 0.0 | 0.00 | 0.01 | 0.00 | 84 | 1012.9 |
| 20260507014410 | 53 | 67 | 0.0 | 0.0 | 0.00 | 0.01 | 0.00 | 84 | 1012.9 |
| 20260507013910 | 53 | 67 | 0.0 | 0.0 | 0.00 | 0.01 | 0.00 | 84 | 1012.9 |
| 20260507013410 | 53 | 67 | 0.0 | 0.0 | 0.00 | 0.01 | 0.00 | 84 | 1012.9 |
| 20260507012911 | 53 | 67 | 0.0 | 0.0 | 0.00 | 0.01 | 0.00 | 84 | 1012.9 |
| 20260507011910 | 53 | 67 | 0.0 | 0.0 | 0.00 | 0.01 | 0.00 | 84 | 1012.9 |
| 20260507011410 | 53 | 67 | 0.0 | 0.0 | 0.00 | 0.01 | 0.00 | 84 | 1012.9 |
| 20260507010410 | 53 | 67 | 0.0 | 0.0 | 0.00 | 0.01 | 0.00 | 84 | 1012.9 |
| 20260507005911 | 53 | 67 | 0.0 | 0.0 | 0.00 | 0.01 | 0.00 | 84 | 1012.9 |
| 20260507005409 | 53 | 67 | 0.0 | 0.0 | 0.00 | 0.01 | 0.00 | 84 | 1012.9 |
| 20260507004910 | 53 | 67 | 0.0 | 0.0 | 0.00 | 0.01 | 0.00 | 84 | 1012.9 |
| 20260507004410 | 53 | 67 | 0.0 | 0.0 | 0.00 | 0.01 | 0.00 | 84 | 1012.9 |